Regional Weather Roundup
Issued by NWS State College, PA

Home | Current Version | Previous Version | Graphics & Text | Print | Product List | Glossary On
Versions: 1 2 3 4 5 6 7 8 9 10 11 12 13 14 15 16 17 18 19 20 21 22 23 24 25 26 27 28 29 30 31 32 33 34 35 36 37 38 39 40 41 42 43 44 45 46 47 48 49 50
000
ASUS41 KCTP 252110
RWRCTP

REGIONAL WEATHER ROUNDUP
NATIONAL WEATHER SERVICE STATE COLLEGE PA
500 PM EDT MON JUL 25 2016

Note: "fair" indicates few or no clouds below 12,000 feet with no
significant weather and/or obstructions to visibility.

* = STATION THAT DOES NOT REPORT PRECIPITATION /E.G. RAIN...SNOW...ETC/
    THUNDER OR FOG.

PAZ002>004-007>009-013>016-020>023-029>032-252200-
WESTERN PENNSYLVANIA

CITY           SKY/WX    TMP DP  RH WIND       PRES   REMARKS
ERIE           SUNNY     81  72  74 W15G22    29.90F
MEADVILLE      CLOUDY    80  68  66 W8        29.95S
FRANKLIN*      CLOUDY    82  70  65 W8G18     29.97R
NEW CASTLE     FAIR      87  68  52 W12       29.93F
BEAVER COUNTY  SUNNY     88  70  55 W13G20    29.93F
BUTLER*        CLOUDY    88  70  55 W9G21     29.95S
PITTSBURGH INT CLOUDY    89  70  53 NW12      29.92F
PITTSBURGH     CLOUDY    83  71  67 W3        29.93S
INDIANA*       SUNNY     81  73  78 CALM      29.98S
LATROBE        PTSUNNY   75  75 100 SW7       29.97R
WASHINGTON CO* PTSUNNY   84  73  70 CALM      29.95R
$$

PAZ004>006-010>012-017>019-024>028-033>037-041-042-045-046-049>053-252200-
CENTRAL PENNSYLVANIA

CITY           SKY/WX    TMP DP  RH WIND       PRES   REMARKS
BRADFORD       CLOUDY    78  69  73 W9        29.96F
DUBOIS         CLOUDY    79  70  74 NW6       29.95S
CLEARFIELD     CLOUDY    80  71  74 N5        29.95S
JOHNSTOWN      LGT RAIN  73  67  81 N9G20     30.01R
ALTOONA        PTSUNNY   90  65  43 NW28G38   29.94R
STATE COLLEGE  PTSUNNY   75  70  83 NW6G22    29.92R
WILLIAMSPORT   LGT RAIN  74  69  85 W7        29.91R
SELINSGROVE    CLOUDY    78  69  73 N18G29    29.90R
FT INDIANTOWN  MOSUNNY   87  71  59 W1        29.84F
CAPITAL CITY   MOSUNNY   96  73  47 VRB6      29.82F HX 105
HARRISBURG     PTSUNNY   95  75  52 CALM      29.82F HX 107
YORK           TSTM      81  72  74 VRB6G21   29.86R
$$

PAZ038>040-043-044-047-048-054-055-060>062-067>071-252200-
EASTERN PENNSYLVANIA

CITY           SKY/WX    TMP DP  RH WIND       PRES   REMARKS
SCRANTON       LGT RAIN  72  71  97 CALM      29.97R FOG
MOUNT POCONO   LGT RAIN  74  68  81 NW20G35   29.97R
ALLENTOWN      TSTM      73  70  88 E10       29.87S FOG
QUAKERTOWN*    CLOUDY    79  73  83 N17G36    29.87R
READING        LGT RAIN  90  74  59 N6        29.84R HX  99
LANCASTER      SUNNY     92  74  55 NW7       29.83F HX 101
COATESVILLE    CLOUDY    91  79  66 VRB5G13   29.86F HX 107
POTTSTOWN      CLOUDY    90  78  68 VRB5      29.85S HX 104
BLUE BELL      CLOUDY    77  77 100 CALM      29.83F
DOYLESTOWN     CLOUDY    82  70  66 S5        29.84R THUNDER
WILLOW GROVE   NOT AVBL
NORTH PHILA    CLOUDY    83  74  74 N5        29.84S
PHILADELPHIA   CLOUDY    94  74  52 SW15      29.83F HX 104
$$




USA.gov is the U.S. government's official web portal to all federal, state and local government web resources and services.